Location: Bartshausen
(51.8454°N, 9.8167°E)
Time: 09:55:27
(UTC+00:00)

Cosmos 1269 Rocket - Pass Details

Date: 08 November 2025
Orbit: 768 x 775 km, 74.1° (Epoch: 11 December)

Event Time Altitude Azimuth Distance (km) Brightness Sun altitude
Exits shadow 03:29:03 63° 7° (N) 865 4.2 -27.7°
Maximum altitude 03:29:47 74° 63° (ENE) 809 4.1 -27.6°
Drops below altitude 10° 03:35:03 10° 149° (SSE) 2,319 6.7 -26.8°
Sets 03:37:26 0° 151° (SSE) 3,243 7.5 -26.4°
